This demonstration page uses our WeatherBlox Daily Observations layout. Learn more.

Left ArrowRight Arrow

Hourly Observations for August 14, 2021

Temp ( °F °C ) Dew Point ( °F °C ) Humidity (%) Winds ( mph kmh ) Pressure ( in mb ) Visibility ( mi km ) Precip ( " mm )
12:15 am 00:15 Cloudy 69 20.8 67 19.5 92 92 Calm 30.12 1020 10 16 0.00 0.00
12:35 am 00:35 Cloudy 69 20.7 67 19.5 93 93 Calm 30.13 1020 10 16 0.00 0.00
12:55 am 00:55 Cloudy 69 20.5 67 19.6 95 95 Calm 30.13 1020 10 16 0.00 0.00
1:15 am 01:15 Cloudy 69 20.5 66 19 91 91 N 3 6 30.14 1021 10 16 0.00 0.00
1:35 am 01:35 Cloudy 69 20.4 65 18.4 88 88 N 5 7 30.14 1021 10 16 0.00 0.00
1:55 am 01:55 Cloudy 68 20.2 65 18.4 89 89 N 3 6 30.16 1021 10 16 0.00 0.00
2:15 am 02:15 Cloudy with Heavy Rain 68 20.2 64 17.7 86 86 NNE 3 6 30.16 1021 7 11 0.01 0.25
2:35 am 02:35 Cloudy 67 19.5 61 16 80 80 NE 5 7 30.16 1021 10 16 0.02 0.51
2:55 am 02:55 Cloudy 66 19 59 15.2 79 79 ENE 3 6 30.15 1021 10 16 0.02 0.51
3:15 am 03:15 Cloudy 65 18.5 61 16.3 87 87 Calm 30.15 1021 10 16 0.00 0.00
3:35 am 03:35 Cloudy 65 18.2 62 16.9 92 92 Calm 30.16 1021 10 16 0.00 0.00
3:55 am 03:55 Cloudy 65 18.4 62 16.8 90 90 Calm 30.15 1021 10 16 0.00 0.00
4:15 am 04:15 Cloudy 65 18.4 63 17 92 92 N 3 6 30.15 1021 10 16 0.00 0.00
4:35 am 04:35 Cloudy 65 18.5 62 16.7 89 89 N 3 6 30.16 1021 10 16 0.00 0.00
4:55 am 04:55 Cloudy 65 18.6 63 17 90 90 Calm 30.16 1021 10 16 0.00 0.00
5:15 am 05:15 Cloudy 65 18.5 63 17.1 92 92 N 3 6 30.17 1022 10 16 0.00 0.00
5:35 am 05:35 Cloudy 65 18.5 63 17.1 92 92 Calm 30.17 1022 10 16 0.00 0.00
5:55 am 05:55 Cloudy 65 18.4 62 16.8 90 90 N 3 6 30.17 1022 10 16 0.00 0.00
6:15 am 06:15 Cloudy 64 17.7 62 16.7 94 94 N 3 6 30.19 1022 10 16 0.00 0.00
6:35 am 06:35 Partly Cloudy 63 17.1 61 16 93 93 N 3 6 30.21 1023 10 16 0.00 0.00
6:55 am 06:55 Clear 62 16.6 60 15.5 93 93 Calm 30.21 1023 10 16 0.00 0.00
7:15 am 07:15 Sunny 62 16.6 59 15.2 92 92 Calm 30.22 1023 10 16 0.00 0.00
7:35 am 07:35 Sunny 62 16.5 60 15.3 93 93 Calm 30.22 1023 10 16 0.00 0.00
7:55 am 07:55 Sunny 63 17.1 60 15.5 90 90 Calm 30.23 1024 10 16 0.00 0.00
8:15 am 08:15 Sunny 64 17.6 59 15.2 86 86 N 5 7 30.22 1024 10 16 0.00 0.00
8:35 am 08:35 Sunny 64 18 60 15.5 85 85 NNE 3 6 30.23 1024 10 16 0.00 0.00
8:55 am 08:55 Sunny 67 19.3 59 15 76 76 NNE 5 7 30.23 1024 10 16 0.00 0.00
9:15 am 09:15 Sunny 68 20 58 14.6 71 71 NNE 3 6 30.23 1024 10 16 0.00 0.00
9:35 am 09:35 Sunny 70 20.9 58 14.6 67 67 NNE 6 9 30.23 1024 10 16 0.00 0.00
9:55 am 09:55 Sunny 71 21.4 58 14.3 64 64 NE 5 7 30.23 1024 10 16 0.00 0.00
10:15 am 10:15 Sunny 72 22 58 14.3 62 62 NNE 5 7 30.23 1024 10 16 0.00 0.00
10:35 am 10:35 Sunny 73 22.7 58 14.6 60 60 NNE 7 11 30.23 1024 10 16 0.00 0.00
10:55 am 10:55 Sunny 73 22.7 58 14.2 59 59 NNE 7 11 30.23 1024 10 16 0.00 0.00
11:15 am 11:15 Sunny 73 23 58 14.2 58 58 NE 6 9 30.24 1024 10 16 0.00 0.00
11:35 am 11:35 Sunny 74 23.1 58 14.3 58 58 NNE 5 7 30.24 1024 10 16 0.00 0.00
11:55 am 11:55 Sunny 74 23.6 59 14.9 58 58 NE 3 6 30.23 1024 10 16 0.00 0.00
12:15 pm 12:15 Sunny 75 23.7 57 13.9 54 54 NE 5 7 30.23 1024 10 16 0.00 0.00
12:35 pm 12:35 Sunny 74 23.5 57 13.8 55 55 ENE 6 9 30.23 1024 10 16 0.00 0.00
12:55 pm 12:55 Sunny 75 24.1 59 14.9 57 57 NE 6 9 30.23 1024 10 16 0.00 0.00
1:15 pm 13:15 Sunny 76 24.4 60 15.6 58 58 NE 7 11 30.22 1023 10 16 0.00 0.00
1:35 pm 13:35 Sunny 76 24.7 61 15.9 58 58 NE 6 9 30.22 1023 10 16 0.00 0.00
1:55 pm 13:55 Sunny 76 24.6 60 15.7 58 58 Calm 30.22 1023 10 16 0.00 0.00
2:15 pm 14:15 Sunny 75 23.8 61 16.2 63 63 NNE 5 7 30.22 1023 10 16 0.00 0.00
2:35 pm 14:35 Sunny 74 23.6 60 15.7 61 61 Calm 30.22 1024 10 16 0.00 0.00
2:55 pm 14:55 Sunny 76 24.6 62 16.4 60 60 NE 3 6 30.22 1023 10 16 0.00 0.00
3:15 pm 15:15 Sunny 76 24.3 61 16.2 61 61 N 5 7 30.22 1023 10 16 0.00 0.00
3:35 pm 15:35 Sunny 76 24.7 60 15.8 58 58 NE 6 9 30.21 1023 10 16 0.00 0.00
3:55 pm 15:55 Sunny 78 25.4 60 15.8 55 55 ENE 7 11 30.20 1023 10 16 0.00 0.00
4:15 pm 16:15 Sunny 78 25.5 60 15.7 55 55 NNE 8 13 30.19 1022 10 16 0.00 0.00
4:35 pm 16:35 Partly Cloudy 76 24.6 60 15.5 57 57 NNE 7 11 30.19 1022 10 16 0.00 0.00
4:55 pm 16:55 Partly Cloudy 77 25 61 16.2 58 58 ENE 6 9 30.19 1022 10 16 0.00 0.00
5:15 pm 17:15 Mostly Cloudy 78 25.6 61 16.2 56 56 NE 7 11 30.18 1022 10 16 0.00 0.00
5:35 pm 17:35 Partly Cloudy 77 24.9 59 14.8 54 54 NE 6 9 30.18 1022 10 16 0.00 0.00
5:55 pm 17:55 Sunny 77 25.2 59 14.8 53 53 NE 3 6 30.18 1022 10 16 0.00 0.00
6:15 pm 18:15 Partly Cloudy 77 25 59 14.8 53 53 NE 6 9 30.18 1022 10 16 0.00 0.00
6:35 pm 18:35 Partly Cloudy 77 25 59 15.2 55 55 ENE 6 9 30.18 1022 10 16 0.00 0.00
6:55 pm 18:55 Partly Cloudy 76 24.6 59 14.9 55 55 NE 6 9 30.17 1022 10 16 0.00 0.00
7:15 pm 19:15 Sunny 76 24.2 59 15.1 57 57 NE 7 11 30.17 1022 10 16 0.00 0.00
7:35 pm 19:35 Sunny 74 23.6 60 15.6 61 61 NE 6 9 30.17 1022 10 16 0.00 0.00
7:55 pm 19:55 Sunny 74 23.1 60 15.4 62 62 NE 5 7 30.18 1022 10 16 0.00 0.00
8:15 pm 20:15 Sunny 71 21.5 61 16.1 71 71 N 5 7 30.18 1022 10 16 0.00 0.00
8:35 pm 20:35 Sunny 69 20.5 61 16.1 76 76 NNE 6 9 30.19 1023 10 16 0.00 0.00
8:55 pm 20:55 Clear 68 19.9 60 15.6 76 76 NNE 6 9 30.20 1023 10 16 0.00 0.00
9:15 pm 21:15 Clear 66 19 60 15.5 80 80 NE 3 6 30.21 1023 10 16 0.00 0.00
9:35 pm 21:35 Clear 65 18.5 60 15.4 82 82 NE 5 7 30.21 1023 10 16 0.00 0.00
9:55 pm 21:55 Clear 64 18 60 15.3 84 84 NE 5 7 30.22 1023 10 16 0.00 0.00
10:15 pm 22:15 Clear 64 17.9 59 15 83 83 NE 5 7 30.23 1024 10 16 0.00 0.00
10:35 pm 22:35 Clear 63 17.2 59 14.8 86 86 NE 5 7 30.24 1024 10 16 0.00 0.00
10:55 pm 22:55 Clear 62 16.4 58 14.7 90 90 NNE 5 7 30.24 1024 10 16 0.00 0.00
11:15 pm 23:15 Clear 62 16.9 58 14.3 85 85 NE 5 7 30.24 1024 10 16 0.00 0.00
11:35 pm 23:35 Clear 61 16.3 57 14.1 87 87 NE 6 9 30.24 1024 10 16 0.00 0.00
11:55 pm 23:55 Clear 63 17 56 13.5 80 80 ENE 5 7 30.25 1024 10 16 0.00 0.00

Powered by AerisWeather